Aeroporto :
LOGIN :

Iscrizione | Disclaimer

   EN    FR    IT 

 










Sommario :    VFR   VFR Marginale   IFR   IFR Intensivo   IFR Molto Intensivo
Visibilità : 
Base nubi : 
>= 8 km
>= 3000ft
5 / 8 km
1000 / 3000 ft
1500m / 5 km
500 / 1000 ft
800 / 1500m
200 / 500 ft
< 800m
< 200 ft
Simboli :   Temporali  Nebbia  Neve Forte  Precipitazioni Forti  Vento > 20 kt
SIGMETs :   Varie  Temporali  Ghiacco  Turbolenza  Onda orograficha  Ceneri Vulcaniche







- Altitudine del aeroporto : 194 ft
- Codice IATA : ANE
- Carte del aeroporto


LFJR - Angers Marcé

ULTIMO METAR :
  • 231330Z AUTO 24003KT 200V300 CAVOK 23/09 Q1016

METARs OBSOLETI :
  • 231300Z AUTO 10004KT 050V140 CAVOK 24/08 Q1017
  • 231230Z AUTO VRB03KT CAVOK 24/09 Q1017
  • 231200Z AUTO VRB05KT CAVOK 24/09 Q1017
  • 231130Z AUTO 19004KT 100V240 CAVOK 23/07 Q1017
  • 231100Z AUTO 23005KT 170V300 CAVOK 23/09 Q1018

Previsioni scadute.
Nessun NOTAM noto per questo aeroporto.



MetMap, La meteo Aeronautica in un colpo d'occhio ! - Copyright ORBIFLY Dicembre 2007 - Disclaimer

ORBIFLY MET'MAP TEAM :

Programmazione e sviluppo : Alexandra Zaïnal
Concezione e sviluppo : Baudouin d'Aumeries
Co-Programmazione e sviluppo : Marc-Olivier Méhu
Supporto tecnico e logistico : Manuel Goepfert
Aiuto per la traduzione : Arnaldo La Scala

Contatto : metmap@orbifly.com




FONTI E CREDITI :

   NOAA